Location: Helsinki
(60.1699°N, 24.9384°E)
Time: 22:32:09
(UTC+02:00)

SR - Visible Passes

Search period start: 28 October 2020 00:00
Search period end: 07 November 2020 00:00
Orbit: 581 x 874 km, 66.7° (Epoch: 27 October)

Date Brightness Start Highest point End Pass type
(mag) Time Alt. Az. Time Alt. Az. Time Alt. Az.
28 Oct ? 03:00:45 23° E 03:00:45 23° E 03:02:56 10° ENE visible
28 Oct ? 04:40:10 65° W 04:40:39 73° NNW 04:45:17 10° NE visible
28 Oct ? 06:19:35 13° WNW 06:23:16 39° N 06:27:46 10° ENE visible
29 Oct ? 02:12:28 11° ENE 02:12:28 11° ENE 02:12:48 10° ENE visible
29 Oct ? 03:51:53 54° ENE 03:51:53 54° ENE 03:55:30 10° NE visible
29 Oct ? 05:31:17 27° WNW 05:33:16 44° NNW 05:37:49 10° NE visible
30 Oct ? 03:03:33 25° ENE 03:03:33 25° ENE 03:05:42 10° NE visible
30 Oct ? 04:42:58 53° NW 04:43:20 55° NNW 04:47:58 10° NE visible
30 Oct ? 06:22:22 13° WNW 06:26:07 37° N 06:30:39 10° ENE visible
31 Oct ? 02:15:14 13° ENE 02:15:14 13° ENE 02:15:47 10° ENE visible
31 Oct ? 03:54:38 49° NE 03:54:38 49° NE 03:58:10 10° NE visible
31 Oct ? 05:34:02 25° WNW 05:36:05 39° N 05:40:37 10° ENE visible
01 Nov ? 03:06:16 26° NE 03:06:16 26° NE 03:08:22 10° NE visible
01 Nov ? 04:45:41 44° NW 04:46:05 45° NNW 04:50:41 10° NE visible
01 Nov ? 06:25:05 12° WNW 06:28:58 38° N 06:33:36 10° ENE visible
02 Nov ? 02:17:54 14° ENE 02:17:54 14° ENE 02:18:32 10° NE visible
02 Nov ? 03:57:18 43° NNE 03:57:18 43° NNE 04:00:50 10° NE visible
02 Nov ? 05:36:43 23° NW 05:38:56 37° N 05:43:29 10° ENE visible
03 Nov ? 03:08:56 26° NE 03:08:56 26° NE 03:11:01 10° NE visible
03 Nov ? 04:48:20 38° NNW 04:48:54 40° N 04:53:28 10° ENE visible
03 Nov ? 06:27:44 12° NW 06:31:48 42° NNE 06:36:36 10° E visible
04 Nov ? 02:20:32 14° NE 02:20:32 14° NE 02:21:13 10° NE visible
04 Nov ? 03:59:56 39° NNE 03:59:56 39° NNE 04:03:32 10° NE visible
04 Nov ? 05:39:21 22° NW 05:41:47 38° N 05:46:26 10° ENE visible
05 Nov ? 03:11:33 25° NE 03:11:33 25° NE 03:13:41 10° NE visible
05 Nov ? 04:50:57 35° NNW 04:51:45 38° N 04:56:20 10° ENE visible
05 Nov ? 06:30:21 12° NW 06:34:36 49° NNE 06:39:34 10° E visible
06 Nov ? 02:23:09 14° NE 02:23:09 14° NE 02:23:52 10° NE visible
06 Nov ? 04:02:33 37° NNE 04:02:33 37° NNE 04:06:19 10° ENE visible
06 Nov ? 05:41:57 22° NW 05:44:37 42° NNE 05:49:25 10° E visible
